When you browse on this site, cookies collect data to enhance your experience and personalize the content and advertising you see.
Visit our Privacy Policy to learn more. By continuing to use the site, you agree to this use of cookies and data.
  • In Hungary
  • List of Countries
  • For 7 days
  • Water Temperature
  • Satellite Maps
  • Weather Map
  • News
  • Weather Widgets
  • user-avatar
    Login

    Hourly Weather Potopykha

    Today, 17 July, Wednesday

    Time Temperature Precipitation Wind Pressure Humidity
    00:00 +15°C° 0 mm 2 mps 742 mmHg 91%
    01:00 +15°C° 0 mm 2 mps 742 mmHg 91%
    02:00 +15°C° 0 mm 2 mps 742 mmHg 91%
    03:00 +15°C° 0 mm 2 mps 742 mmHg 91%
    04:00 +15°C° 0 mm 2 mps 741 mmHg 91%
    05:00 +15°C° 0 mm 2 mps 741 mmHg 91%
    06:00 +16°C° 0 mm 2 mps 741 mmHg 84%
    07:00 +18°C° 0 mm 2 mps 741 mmHg 78%
    08:00 +21°C° 0 mm 1 mps 741 mmHg 71%
    09:00 +21°C° 0.1 mm 2 mps 741 mmHg 66%
    10:00 +22°C° 0.1 mm 3 mps 741 mmHg 60%
    11:00 +24°C° 0.1 mm 3 mps 741 mmHg 54%
    12:00 +23°C° 0.4 mm 4 mps 741 mmHg 57%
    13:00 +23°C° 0.4 mm 4 mps 741 mmHg 60%
    14:00 +23°C° 0.4 mm 5 mps 741 mmHg 63%
    15:00 +22°C° 0.2 mm 5 mps 741 mmHg 65%
    16:00 +22°C° 0.2 mm 4 mps 741 mmHg 67%
    17:00 +21°C° 0.2 mm 4 mps 741 mmHg 69%
    18:00 +20°C° 0.1 mm 3 mps 741 mmHg 74%
    19:00 +18°C° 0.1 mm 3 mps 741 mmHg 79%
    20:00 +16°C° 0.1 mm 2 mps 741 mmHg 83%
    21:00 +16°C° 0 mm 2 mps 741 mmHg 85%
    22:00 +15°C° 0 mm 2 mps 741 mmHg 86%
    23:00 +15°C° 0 mm 2 mps 741 mmHg 87%

    Tomorrow, 18 July, Thursday

    Time Temperature Precipitation Wind Pressure Humidity
    00:00 +14°C° 0 mm 2 mps 741 mmHg 88%
    01:00 +14°C° 0 mm 2 mps 741 mmHg 90%
    02:00 +14°C° 0 mm 2 mps 741 mmHg 91%
    03:00 +13°C° 0 mm 2 mps 741 mmHg 92%
    04:00 +13°C° 0 mm 2 mps 741 mmHg 93%
    05:00 +13°C° 0 mm 2 mps 741 mmHg 94%
    06:00 +14°C° 0 mm 3 mps 742 mmHg 87%
    07:00 +16°C° 0 mm 3 mps 742 mmHg 81%
    08:00 +18°C° 0 mm 3 mps 742 mmHg 74%
    09:00 +19°C° 0 mm 4 mps 742 mmHg 70%
    10:00 +20°C° 0 mm 4 mps 742 mmHg 65%
    11:00 +21°C° 0 mm 5 mps 742 mmHg 61%
    12:00 +21°C° 0 mm 5 mps 742 mmHg 60%
    13:00 +22°C° 0 mm 5 mps 743 mmHg 59%
    14:00 +22°C° 0 mm 5 mps 743 mmHg 58%
    15:00 +22°C° 0.1 mm 4 mps 743 mmHg 60%
    16:00 +22°C° 0.1 mm 4 mps 743 mmHg 62%
    17:00 +21°C° 0.1 mm 4 mps 743 mmHg 63%
    18:00 +20°C° 0.1 mm 3 mps 743 mmHg 70%
    19:00 +18°C° 0.1 mm 3 mps 744 mmHg 77%
    20:00 +16°C° 0.1 mm 2 mps 744 mmHg 84%
    21:00 +16°C° 0 mm 3 mps 744 mmHg 87%
    22:00 +14°C° 0 mm 3 mps 744 mmHg 89%
    23:00 +14°C° 0 mm 3 mps 745 mmHg 92%

    Day after tomorrow, 19 July, Friday

    Time Temperature Precipitation Wind Pressure Humidity
    00:00 +13°C° 0 mm 3 mps 745 mmHg 93%
    01:00 +13°C° 0 mm 3 mps 745 mmHg 94%
    02:00 +13°C° 0 mm 3 mps 745 mmHg 95%
    03:00 +13°C° 0 mm 3 mps 745 mmHg 95%
    04:00 +13°C° 0 mm 3 mps 745 mmHg 95%
    05:00 +13°C° 0 mm 3 mps 745 mmHg 95%
    06:00 +16°C° 0 mm 3 mps 746 mmHg 90%
    07:00 +18°C° 0 mm 4 mps 746 mmHg 84%
    08:00 +19°C° 0 mm 4 mps 746 mmHg 78%
    09:00 +20°C° 0 mm 5 mps 747 mmHg 74%
    10:00 +22°C° 0 mm 5 mps 747 mmHg 70%
    11:00 +23°C° 0 mm 5 mps 747 mmHg 66%
    12:00 +23°C° 0.3 mm 5 mps 747 mmHg 66%
    13:00 +23°C° 0.3 mm 5 mps 747 mmHg 65%
    14:00 +25°C° 0.3 mm 5 mps 747 mmHg 65%
    15:00 +23°C° 0.2 mm 4 mps 747 mmHg 66%
    16:00 +23°C° 0.2 mm 4 mps 747 mmHg 66%
    17:00 +23°C° 0.2 mm 4 mps 747 mmHg 67%
    18:00 +22°C° 0 mm 3 mps 747 mmHg 72%
    19:00 +20°C° 0 mm 2 mps 748 mmHg 77%
    20:00 +18°C° 0 mm 2 mps 748 mmHg 82%
    21:00 +18°C° 0 mm 2 mps 748 mmHg 83%
    22:00 +17°C° 0 mm 2 mps 749 mmHg 84%
    23:00 +16°C° 0 mm 2 mps 749 mmHg 85%

    20 July, Saturday

    Time Temperature Precipitation Wind Pressure Humidity
    00:00 +16°C° 0 mm 2 mps 749 mmHg 87%
    01:00 +16°C° 0 mm 2 mps 749 mmHg 88%
    02:00 +15°C° 0 mm 2 mps 749 mmHg 90%
    03:00 +15°C° 0 mm 2 mps 749 mmHg 90%
    04:00 +15°C° 0 mm 2 mps 749 mmHg 90%
    05:00 +16°C° 0 mm 2 mps 749 mmHg 90%
    06:00 +18°C° 0 mm 2 mps 749 mmHg 84%
    07:00 +19°C° 0 mm 3 mps 750 mmHg 78%
    08:00 +21°C° 0 mm 3 mps 750 mmHg 72%
    09:00 +24°C° 0 mm 3 mps 750 mmHg 67%
    10:00 +25°C° 0 mm 3 mps 750 mmHg 62%
    11:00 +26°C° 0 mm 3 mps 750 mmHg 57%
    12:00 +26°C° 0.1 mm 3 mps 750 mmHg 55%
    13:00 +27°C° 0.1 mm 3 mps 750 mmHg 54%
    14:00 +27°C° 0.1 mm 3 mps 750 mmHg 52%
    15:00 +27°C° 0 mm 3 mps 750 mmHg 55%
    16:00 +27°C° 0 mm 3 mps 750 mmHg 57%
    17:00 +26°C° 0 mm 3 mps 750 mmHg 60%
    18:00 +24°C° 0 mm 2 mps 750 mmHg 66%
    19:00 +21°C° 0 mm 2 mps 750 mmHg 72%
    20:00 +19°C° 0 mm 2 mps 751 mmHg 79%
    21:00 +20°C° 0 mm 1 mps 751 mmHg 80%
    22:00 +17°C° 0 mm 0 mps 751 mmHg 82%
    23:00 +16°C° 0 mm 0 mps 751 mmHg 83%

    21 July, Sunday

    Time Temperature Precipitation Wind Pressure Humidity
    00:00 +16°C° 0 mm 0 mps 751 mmHg 84%
    01:00 +16°C° 0 mm 0 mps 751 mmHg 84%
    02:00 +16°C° 0 mm 0 mps 751 mmHg 84%
    03:00 +16°C° 0 mm 0 mps 751 mmHg 83%
    04:00 +16°C° 0 mm 0 mps 751 mmHg 83%
    05:00 +17°C° 0 mm 0 mps 751 mmHg 82%
    06:00 +20°C° 0 mm 1 mps 751 mmHg 79%
    07:00 +21°C° 0 mm 1 mps 751 mmHg 76%
    08:00 +21°C° 0 mm 2 mps 751 mmHg 73%
    09:00 +23°C° 0.1 mm 2 mps 751 mmHg 71%
    10:00 +23°C° 0.1 mm 2 mps 751 mmHg 68%
    11:00 +24°C° 0.1 mm 2 mps 751 mmHg 66%
    12:00 +25°C° 0.4 mm 2 mps 751 mmHg 63%
    13:00 +25°C° 0.4 mm 2 mps 751 mmHg 60%
    14:00 +26°C° 0.4 mm 2 mps 751 mmHg 57%
    15:00 +26°C° 0.3 mm 1 mps 751 mmHg 59%
    16:00 +26°C° 0.3 mm 1 mps 751 mmHg 60%
    17:00 +26°C° 0.3 mm 1 mps 750 mmHg 61%
    18:00 +24°C° 0 mm 1 mps 750 mmHg 67%
    19:00 +20°C° 0 mm 0 mps 750 mmHg 74%
    20:00 +18°C° 0 mm 0 mps 751 mmHg 80%
    21:00 +18°C° 0 mm 0 mps 750 mmHg 81%
    22:00 +17°C° 0 mm 0 mps 750 mmHg 82%
    23:00 +17°C° 0 mm 0 mps 750 mmHg 83%

    22 July, Monday

    Time Temperature Precipitation Wind Pressure Humidity
    00:00 +16°C° 0 mm 0 mps 750 mmHg 84%
    01:00 +18°C° 0 mm 1 mps 750 mmHg 85%
    02:00 +18°C° 0 mm 1 mps 750 mmHg 86%
    03:00 +18°C° 0 mm 1 mps 750 mmHg 86%
    04:00 +16°C° 0 mm 0 mps 750 mmHg 85%
    05:00 +16°C° 0 mm 0 mps 750 mmHg 85%
    06:00 +18°C° 0 mm 0 mps 750 mmHg 80%
    07:00 +22°C° 0 mm 1 mps 750 mmHg 74%
    08:00 +23°C° 0 mm 1 mps 750 mmHg 69%
    09:00 +25°C° 0 mm 1 mps 750 mmHg 64%
    10:00 +26°C° 0 mm 1 mps 750 mmHg 59%
    11:00 +27°C° 0 mm 1 mps 750 mmHg 53%
    12:00 +27°C° 0 mm 1 mps 749 mmHg 52%
    13:00 +27°C° 0 mm 1 mps 749 mmHg 51%
    14:00 +27°C° 0 mm 1 mps 749 mmHg 50%
    15:00 +27°C° 0 mm 1 mps 749 mmHg 52%
    16:00 +27°C° 0 mm 1 mps 748 mmHg 55%
    17:00 +27°C° 0 mm 1 mps 748 mmHg 58%
    18:00 +25°C° 0 mm 1 mps 748 mmHg 60%
    19:00 +24°C° 0 mm 1 mps 748 mmHg 61%
    20:00 +22°C° 0 mm 1 mps 748 mmHg 63%
    21:00 +21°C° 0 mm 2 mps 748 mmHg 67%
    22:00 +20°C° 0 mm 2 mps 748 mmHg 70%
    23:00 +19°C° 0 mm 3 mps 747 mmHg 73%
    Show more